This is the latest recevied weather packets stored in our database for station/object KO4ZGL-13. If no packets are shown the sender has not sent any weather packets the latest 10 day(s).
| Time | Temp. | Humidity | Pressure | Rain* | Wind** | Luminosity | Snow |
|---|---|---|---|---|---|---|---|
| 1788563389 | 30.56° C | 82% | 1014.7 hPa | 0 mm | - | 15 W/m² | - |
| 1788563088 | 30.56° C | 82% | 1014.6 hPa | 0 mm | - | 18 W/m² | - |
| 1788562783 | 30.56° C | 82% | 1014.7 hPa | 0 mm | - | 19 W/m² | - |
| 1788562481 | 30.56° C | 81% | 1014.7 hPa | 0 mm | - | 23 W/m² | - |
| 1788562175 | 30.56° C | 81% | 1014.6 hPa | 0 mm | - | 23 W/m² | - |
| 1788561871 | 31.11° C | 80% | 1014.6 hPa | 0 mm | - | 25 W/m² | - |
| 1788561570 | 31.11° C | 79% | 1014.5 hPa | 0 mm | - | 26 W/m² | - |
| 1788561270 | 31.11° C | 78% | 1014.3 hPa | 0 mm | - | 27 W/m² | - |
| 1788560966 | 31.11° C | 78% | 1014.3 hPa | 0 mm | - | 29 W/m² | - |
| 1788560661 | 31.67° C | 78% | 1014.5 hPa | 0 mm | - | 31 W/m² | - |
| 1788560361 | 31.67° C | 78% | 1014.3 hPa | 0 mm | - | 32 W/m² | - |
| 1788560055 | 31.67° C | 77% | 1014.4 hPa | 0 mm | - | 47 W/m² | - |
| 1788559751 | 32.22° C | 75% | 1014.5 hPa | 0 mm | - | 63 W/m² | - |
| 1788559450 | 32.22° C | 76% | 1014.5 hPa | 0 mm | - | 186 W/m² | - |
| 1788559146 | 32.22° C | 76% | 1014.4 hPa | 0 mm | - | 85 W/m² | - |
| 1788558841 | 32.78° C | 75% | 1014.5 hPa | 0 mm | - | 64 W/m² | - |
| 1788558536 | 32.78° C | 74% | 1014.6 hPa | 0 mm | - | 79 W/m² | - |
| 1788558232 | 33.33° C | 73% | 1014.5 hPa | 0 mm | - | 263 W/m² | - |
| 1788557930 | 33.33° C | 75% | 1014.5 hPa | 0 mm | - | 284 W/m² | - |
| 1788557625 | 33.89° C | 73% | 1014.5 hPa | 0 mm | - | 309 W/m² | - |
| 1788557321 | 33.89° C | 73% | 1014.3 hPa | 0 mm | - | 339 W/m² | - |
| 1788557015 | 33.33° C | 73% | 1014.6 hPa | 0 mm | - | 359 W/m² | - |
| 1788556711 | 33.89° C | 73% | 1014.3 hPa | 0 mm | - | 385 W/m² | - |
| 1788556406 | 33.33° C | 73% | 1014.3 hPa | 0 mm | - | 381 W/m² | - |
| 1788556101 | 34.44° C | 71% | 1014.4 hPa | 0 mm | - | 265 W/m² | - |
* Rain latest hour (hover to see other rain measurements)
** Current wind speed in m/s (hover to see current wind gust speed)